Showing default

KUIPER-00218, 67780

Orbit data source: Space-Track

KUIPER-00218, 67780 is a payload satellite owned by Kuiper Systems (US) in LEO that was launched on Thu, 12 Feb 2026 UTC via an ARIANE 64 launch vehicle from the French Guiana (FRGUI). Payload-class satellites include a variety of spacecraft equipped with specific instruments for various scientific and technological missions. These include communications satellites like Starlink; space stations such as the ISS; scientific satellites like the Hubble; Earth observation satellites from companies like Planet Labs, Umbra, and HawkEye 360; GPS; miniature CubeSats for education and research; and military/defense satellites.

Loading next visibility...
Identifier
67780, 2026-030S
Orbit
LEO
Country
Flag of USUS
Related business
Manufacturer
Kuiper Systems
Mission
Operational Commercial Communications
Bus & Motor
KUIPER, Unknown motor
Mass
~490 kg wet, ~490 kg dry
Launch date (UTC)
2026-02-12 (4 months ago)
Launch vehicle
ARIANE 64
Launch site
French Guiana (FRGUI)
Object type
Payload
Rocket body
Debris
Shape & HBR
Box + 2 Pan, 3.4 m
Radar Cross Section
2.326 m², Large (>1 m²)

Expand to show TLE details & history
Last TLE update: 2 days ago

TLE from 2 days ago
0 KUIPER-00218
1 67780U 26030S   26170.12337431 -.00003256  00000-0 -39852-3 0  9997
2 67780  51.8977 117.0638 0000711 107.9000 252.2040 14.79908774 20305
Epoch: 2026-06-19T02:57Z
TLE epoch observation values (Epoch: 2026-06-19T02:57:39.540Z)
Latitude
-0°
Longitude
165.29218°
Altitude
630.511 km
Speed
7.544 km/s
True Right ascension
07h 48m 15s
True Declination
0° 00' 00"
Sunlit
Object was in daylight at epoch
Visualization orbit readout
Latitude
Unknown
Longitude
Unknown
Altitude
Unknown
Speed
Unknown
Apparent Right ascension
Unknown
Apparent Declination
Unknown
Sunlit
N/A
Visualization observer readout
Local Sidereal Time
07:19:28
Azimuth
Unknown
Elevation
Unknown
Doppler factor
Unknown
Orbital elements
Apogee altitude
630.562 km
Perigee altitude
629.565 km
Semi-major axis
7,008.201 km
Eccentricity
0.00007
Inclination
51.8977°
RAAN
117.0638°
Arg. of periapsis
107.9°
True anomaly
252.19624°
Mean anomaly
252.204°
Eccentric anomaly
252.20012°
Mean motion
3.69942 °/min
Orbital period
97.31 mins
BSTAR
-0.00039852
Loading maneuver chart data...
Computing Atmospheric mass density...
Loading historical data...
Loading historical data...
Loading historical data...
Loading historical data...
Loading historical data...
Loading historical data...
Loading historical data...

Documentation

Showing up to 5 results
|